Regional Weather Roundup
Issued by NWS Cleveland, OH

Home | Current Version | Previous Version | Graphics & Text | Print | Product List | Glossary On
Versions: 1 2 3 4 5 6 7 8 9 10 11 12 13 14 15 16 17 18 19 20 21 22 23 24 25 26 27 28 29 30 31 32 33 34 35 36 37 38 39 40 41 42 43 44 45 46 47 48 49 50
000
ASUS41 KCLE 281102
RWRCLE
OHIO REGIONAL WEATHER ROUNDUP
NATIONAL WEATHER SERVICE CLEVELAND, OH
700 AM EDT TUE APR 28 2015

NOTE: "FAIR" INDICATES FEW OR NO CLOUDS BELOW 12,000 FEET WITH NO
SIGNIFICANT WEATHER AND/OR OBSTRUCTIONS TO VISIBILITY.

OHZ001>008-015>018-024>027-034-035-043-044-281200-
   NORTHWEST OHIO

CITY           SKY/WX    TMP DP  RH WIND       PRES   REMARKS
DEFIANCE       CLEAR     33  29  85 CALM      30.14R
FINDLAY        CLEAR     33  31  92 W3        30.11R
TOLEDO EXPRESS CLEAR     33  30  88 CALM      30.12R
TOLEDO EXEC    CLEAR     33  30  88 NW5       30.13R WCI  29
LIMA           CLEAR     34  32  92 CALM      30.12R
$$

OHZ009>014-019>023-028>033-038-089-281200-
   NORTHEAST OHIO

CITY           SKY/WX    TMP DP  RH WIND       PRES   REMARKS
CLE-HOPKINS    PTCLDY    36  32  85 W5        30.11R
CLE-LAKEFRONT  CLEAR     41  35  79 NW9       30.08R
CUY CO. ARPT   PTCLDY    34  32  93 W6        30.08  WCI  29
LORAIN-ELYRIA  CLEAR     33  32  96 NW5       30.10R WCI  29
ASHTABULA      CLEAR     33  31  92 W3        30.06S
AKRON-CANTON   PTCLDY    34  30  85 NW5       30.06R WCI  30
WOOSTER        CLEAR     30  29  96 NW5       30.08R WCI  25
MANSFIELD      CLEAR     35  32  88 NW5       30.09R
YOUNGSTOWN     PTCLDY    34  32  92 NW6       30.05R WCI  29
$$

OHZ042-051>053-060>062-070>072-077>081-281200-
  SOUTHWEST OHIO

CITY           SKY/WX    TMP DP  RH WIND       PRES   REMARKS
CINC-COVINGTON CLEAR     41  36  82 NE5       30.10R
CINC-LUNKEN    CLEAR     34  34 100 NE5       30.12S FOG     WCI  30
HAMILTON       CLEAR     35  33  92 CALM      30.13R
DAYTON         CLEAR     37  34  89 CALM      30.12R
WRIGHT-PAT AFB NOT AVBL
DAYTON GENERAL CLEAR     34  33  96 NE5       30.10R WCI  30
WILMINGTON     CLEAR     37  33  85 NW6       30.10R
$$

OHZ036-037-039>041-045>050-054>059-063>069-073>076-082>088-281200-
  CENTRAL AND SOUTHEAST OHIO

CITY           SKY/WX    TMP DP  RH WIND       PRES   REMARKS
COLUMBUS       CLEAR     35  33  92 CALM      30.10R
OSU AIRPORT    CLEAR     35  32  88 NW5       30.10R
BOLTON FIELD   NOT AVBL
RICKENBACK AFB NOT AVBL
NEWARK         CLEAR     31  29  92 CALM      30.09R FOG
MARION         CLEAR     33  31  92 CALM      30.11R FOG
LANCASTER      CLEAR     31  29  92 CALM      30.10R FOG
ZANESVILLE     CLEAR     32  30  92 W3        30.09R
NEW PHILLY     CLEAR     36  33  89 CALM      30.07R FOG
$$


USA.gov is the U.S. government's official web portal to all federal, state and local government web resources and services.